This demonstration page uses our WeatherBlox Daily Observations layout. Learn more.

Left ArrowRight Arrow

Hourly Observations for May 20, 2022

Temp ( °F °C ) Dew Point ( °F °C ) Humidity (%) Winds ( mph kmh ) Pressure ( in mb ) Visibility ( mi km ) Precip ( " mm )
12:15 am 00:15 undefined 65 18.1 63 17.4 96 96 SSW 16 26 29.62 1003 1 2 0.33 8.38
12:35 am 00:35 Mostly Clear with Thunderstorms 64 17.7 62 16.8 95 95 S 14 22 29.58 1002 7 11 0.46 11.68
12:55 am 00:55 Mostly Clear with Nearby Thunderstorms 64 18 63 17.3 96 96 S 15 24 29.58 1002 10 16 0.48 12.19
1:15 am 01:15 Mostly Clear with Thunderstorms 64 18 64 17.5 97 97 SSE 9 15 29.57 1001 10 16 0.00 0.00
1:35 am 01:35 Mostly Clear with Thunderstorms 65 18.3 64 17.7 96 96 S 15 24 29.57 1001 10 16 0.01 0.25
1:55 am 01:55 Mostly Clear with Thunderstorms 65 18.3 64 17.9 98 98 S 12 19 29.55 1001 10 16 0.02 0.51
2:15 am 02:15 undefined 65 18.3 64 18 98 98 S 10 17 29.54 1000 10 16 0.00 0.00
2:35 am 02:35 Mostly Clear with Nearby Thunderstorms 65 18.3 64 18 98 98 S 10 17 29.54 1000 10 16 0.00 0.00
2:55 am 02:55 Mostly Clear with Thunderstorms 65 18.2 64 17.8 98 98 S 12 19 29.54 1000 10 16 0.00 0.00
3:15 am 03:15 undefined 65 18.3 64 17.9 98 98 SSE 12 19 29.54 1000 10 16 0.00 0.00
3:35 am 03:35 undefined 65 18.3 64 17.9 98 98 S 12 19 29.55 1001 10 16 0.00 0.00
3:55 am 03:55 undefined 65 18.2 64 17.8 98 98 S 9 15 29.55 1001 10 16 0.00 0.00
4:15 am 04:15 Mostly Clear with Nearby Thunderstorms 65 18.2 64 17.7 97 97 SSW 10 17 29.56 1001 10 16 0.00 0.00
4:35 am 04:35 undefined 65 18.1 64 17.6 97 97 S 8 13 29.56 1001 10 16 0.00 0.00
4:55 am 04:55 undefined 65 18.1 64 17.6 97 97 S 8 13 29.56 1001 10 16 0.00 0.00
5:15 am 05:15 undefined 64 18 64 17.5 97 97 S 3 6 29.57 1001 10 16 0.00 0.00
5:35 am 05:35 undefined 64 18 64 17.5 97 97 Calm 29.57 1001 10 16 0.00 0.00
5:55 am 05:55 undefined 64 17.8 63 17.3 97 97 Calm 29.57 1001 10 16 0.00 0.00
6:15 am 06:15 undefined 64 18 63 17.3 96 96 SSW 3 6 29.58 1002 10 16 0.00 0.00
6:35 am 06:35 undefined 64 17.8 63 17.3 97 97 S 8 13 29.58 1002 10 16 0.00 0.00
6:55 am 06:55 undefined 64 18 64 17.5 97 97 S 9 15 29.58 1002 10 16 0.00 0.00
7:15 am 07:15 undefined 65 18.3 64 17.6 96 96 S 9 15 29.59 1002 10 16 0.00 0.00
7:35 am 07:35 undefined 66 18.7 64 18 96 96 S 9 15 29.59 1002 10 16 0.00 0.00
7:55 am 07:55 undefined 67 19.5 65 18.3 93 93 S 10 17 29.59 1002 10 16 0.00 0.00
8:15 am 08:15 undefined 69 20.3 65 18.5 89 89 S 15 24 29.60 1002 10 16 0.00 0.00
8:35 am 08:35 undefined 69 20.7 66 18.7 88 88 S 13 20 29.59 1002 10 16 0.00 0.00
8:55 am 08:55 undefined 71 21.4 66 19.1 87 87 SSW 15 24 29.59 1002 10 16 0.00 0.00
9:15 am 09:15 undefined 72 22 67 19.3 85 85 SSW 14 22 29.59 1002 10 16 0.00 0.00
9:35 am 09:35 undefined 72 22.3 67 19.5 84 84 S 16 26 29.58 1002 10 16 0.00 0.00
9:55 am 09:55 undefined 73 23 67 19.5 81 81 SSW 14 22 29.59 1002 10 16 0.00 0.00
10:15 am 10:15 undefined 74 23.5 67 19.5 78 78 SSW 18 30 29.60 1002 10 16 0.00 0.00
10:35 am 10:35 undefined 75 23.8 67 19.6 77 77 SW 22 35 29.62 1003 10 16 0.00 0.00
10:55 am 10:55 undefined 76 24.6 67 19.6 74 74 SW 21 33 29.63 1003 10 16 0.00 0.00
11:15 am 11:15 undefined 78 25.3 68 19.8 72 72 SW 15 24 29.62 1003 10 16 0.00 0.00
11:35 am 11:35 undefined 78 25.5 67 19.7 70 70 SW 18 30 29.63 1003 10 16 0.00 0.00
11:55 am 11:55 undefined 78 25.5 67 19.5 70 70 SSW 18 30 29.62 1003 10 16 0.00 0.00
12:15 pm 12:15 undefined 77 25 67 19.2 70 70 SSW 16 26 29.62 1003 10 16 0.00 0.00
12:35 pm 12:35 undefined 77 24.8 66 18.7 69 69 SSW 24 39 29.62 1003 10 16 0.00 0.00
12:55 pm 12:55 undefined 78 25.6 66 19.1 67 67 SSW 15 24 29.62 1003 10 16 0.00 0.00
1:15 pm 13:15 undefined 80 26.5 66 19 63 63 SSW 21 33 29.61 1003 10 16 0.00 0.00
1:35 pm 13:35 undefined 80 26.9 65 18.4 60 60 SSW 25 41 29.59 1002 10 16 0.00 0.00
1:55 pm 13:55 undefined 82 27.5 65 18.2 57 57 S 20 31 29.58 1002 10 16 0.00 0.00
2:15 pm 14:15 undefined 82 27.9 64 17.6 54 54 S 20 31 29.58 1002 10 16 0.00 0.00
2:35 pm 14:35 undefined 83 28.4 64 17.7 52 52 SSW 22 35 29.60 1002 10 16 0.00 0.00
2:55 pm 14:55 undefined 83 28.5 63 17 50 50 SSW 26 43 29.59 1002 10 16 0.00 0.00
3:15 pm 15:15 undefined 84 28.9 64 17.9 51 51 SSW 20 31 29.59 1002 10 16 0.00 0.00
3:35 pm 15:35 undefined 84 28.9 64 17.5 50 50 SSW 18 30 29.59 1002 10 16 0.00 0.00
3:55 pm 15:55 undefined 84 29 62 16.8 48 48 SSW 24 39 29.59 1002 10 16 0.00 0.00
4:15 pm 16:15 undefined 85 29.2 62 16.6 47 47 SSW 25 41 29.59 1002 10 16 0.00 0.00
4:35 pm 16:35 undefined 85 29.3 62 16.6 46 46 SSW 29 46 29.59 1002 10 16 0.00 0.00
4:55 pm 16:55 undefined 85 29.3 62 16.5 46 46 SSW 23 37 29.58 1002 10 16 0.00 0.00
5:15 pm 17:15 undefined 85 29.4 62 16.7 46 46 S 22 35 29.58 1002 10 16 0.00 0.00
5:35 pm 17:35 undefined 85 29.5 63 17 47 47 SSW 21 33 29.58 1002 10 16 0.00 0.00
5:55 pm 17:55 undefined 85 29.3 63 17 47 47 SSW 25 41 29.59 1002 10 16 0.00 0.00
6:15 pm 18:15 undefined 84 29.1 62 16.6 47 47 SSW 17 28 29.60 1002 10 16 0.00 0.00
6:35 pm 18:35 undefined 84 29 62 16.9 48 48 SSW 17 28 29.60 1002 10 16 0.00 0.00
6:55 pm 18:55 undefined 84 28.8 63 17.2 50 50 SSW 18 30 29.61 1003 10 16 0.00 0.00
7:15 pm 19:15 undefined 83 28.5 62 16.5 48 48 SSW 17 28 29.61 1003 10 16 0.00 0.00
7:35 pm 19:35 undefined 83 28.2 62 16.9 50 50 SSW 18 30 29.62 1003 10 16 0.00 0.00
7:55 pm 19:55 undefined 82 27.5 63 17 53 53 SSW 12 19 29.64 1004 10 16 0.00 0.00
8:15 pm 20:15 undefined 81 27 63 17.2 55 55 SSW 12 19 29.65 1004 10 16 0.00 0.00
8:35 pm 20:35 undefined 80 26.5 63 17 56 56 SW 10 17 29.67 1005 10 16 0.00 0.00
8:55 pm 20:55 undefined 79 26.1 62 16.8 57 57 SSW 10 17 29.69 1005 10 16 0.00 0.00
9:15 pm 21:15 undefined 78 25.6 62 16.9 59 59 SSW 9 15 29.70 1006 10 16 0.00 0.00
9:35 pm 21:35 undefined 77 25 63 17 61 61 SSW 9 15 29.71 1006 10 16 0.00 0.00
9:55 pm 21:55 undefined 77 24.9 63 17.2 62 62 SSW 8 13 29.72 1006 10 16 0.00 0.00
10:15 pm 22:15 undefined 77 25 63 17.2 62 62 SSW 10 17 29.73 1007 10 16 0.00 0.00
10:35 pm 22:35 undefined 76 24.4 64 17.5 66 66 SSW 9 15 29.73 1007 10 16 0.00 0.00
10:55 pm 22:55 undefined 76 24.5 64 17.5 65 65 SSW 10 17 29.74 1007 10 16 0.00 0.00
11:15 pm 23:15 undefined 76 24.7 64 17.5 64 64 SSW 12 19 29.74 1007 10 16 0.00 0.00
11:35 pm 23:35 undefined 77 25 63 17.3 62 62 SSW 15 24 29.75 1007 10 16 0.00 0.00
11:55 pm 23:55 undefined 77 24.9 63 17.4 63 63 SSW 14 22 29.75 1007 10 16 0.00 0.00

Powered by AerisWeather